Showing default

GUANGCHUAN 01, 62111

Orbit data source: Space-Track

GUANGCHUAN 01, 62111 is a payload satellite owned by Hongqing Keji (CN) in LEO that was launched on Wed, 27 Nov 2024 UTC via a ZHUQUE-2E launch vehicle from the Jiuquan Satellite Launch Center, China (JSC). Payload-class satellites include a variety of spacecraft equipped with specific instruments for various scientific and technological missions. These include communications satellites like Starlink; space stations such as the ISS; scientific satellites like the Hubble; Earth observation satellites from companies like Planet Labs, Umbra, and HawkEye 360; GPS; miniature CubeSats for education and research; and military/defense satellites.

Loading next visibility...
Identifier
62111, 2024-221A
Orbit
LEO
Country
Flag of CNCN / PRC
Related business
Manufacturer
CAST?
Mission
Operational Commercial Communications
Bus & Motor
HQ, Unknown motor
Mass
~500 kg wet, ~500 kg dry
Launch date (UTC)
2024-11-27 (2 years ago)
Launch vehicle
ZHUQUE-2E
Launch site
Jiuquan Satellite Launch Center, China (JSC)
Object type
Payload
Rocket body
Debris
Shape & HBR
Box + 2 Pan, 3.0 m
Radar Cross Section
4.560 m², Large (>1 m²)

Expand to show TLE details & history
Last TLE update: 12 hours ago

TLE from 12 hours ago
0 GUANGCHUAN 01
1 62111U 24221A   26171.40225868  .00003221  00000-0  18789-3 0  9998
2 62111  49.9429 146.4966 0007653 313.9258  46.1060 15.14649947 86672
Epoch: 2026-06-20T09:39Z
TLE epoch observation values (Epoch: 2026-06-20T09:39:15.149Z)
Latitude
-0.00007°
Longitude
93.06603°
Altitude
518.928 km
Speed
7.607 km/s
True Right ascension
09h 45m 59s
True Declination
0° 00' 00"
Sunlit
Object was in daylight at epoch
Visualization orbit readout
Latitude
Unknown
Longitude
Unknown
Altitude
Unknown
Speed
Unknown
Apparent Right ascension
Unknown
Apparent Declination
Unknown
Sunlit
N/A
Visualization observer readout
Local Sidereal Time
08:43:01
Azimuth
Unknown
Elevation
Unknown
Doppler factor
Unknown
Orbital elements
Apogee altitude
528.101 km
Perigee altitude
517.538 km
Semi-major axis
6,900.957 km
Eccentricity
0.00077
Inclination
49.9429°
RAAN
146.4966°
Arg. of periapsis
313.9258°
True anomaly
46.16924°
Mean anomaly
46.106°
Eccentric anomaly
46.13762°
Mean motion
3.78599 °/min
Orbital period
95.09 mins
BSTAR
0.00018789
Loading maneuver chart data...
Computing Atmospheric mass density...
Loading historical data...
Loading historical data...
Loading historical data...
Loading historical data...
Loading historical data...
Loading historical data...
Loading historical data...
Other satellites on launch #221 in the year 2024 (2024-11-27 UTC)

Documentation

Showing up to 5 results
|